NIMBUS 2 DEB, 28978

Orbit data source: Space-Track

NIMBUS 2 DEB, 28978 is space debris in LEO originally from a launch on Sun, 15 May 1966 UTC launched from the Air Force Western Test Range (AFWTR). Debris objects in space refer to the collection of defunct objects orbiting the Earth. Examples of debris include non-operational satellites, rocket bodies, and fragments generated from explosions, collisions, or faulty payload assembly.

Loading next visibility...
NIMBUS 2 DEB details
Identifier
28978, 1966-040AP
Orbit
LEO
Last TLE update1 day ago
Origin
Flag of USGSFC (US)
ManufacturerUnknown
MissionSpacecraft
Bus & MotorUnknown
MassUnknown
Launch date (UTC)
1966-05-15 (59 years ago)
Launch vehicleUnknown
Launch site
Air Force Western Test Range (AFWTR)
Object type
Payload
Rocket body
Debris
Shape & HBRUnknown
Radar Cross SectionSmall (<0.1 m²)

Expand to show TLE details & history

TLE from 1 day ago
0 NIMBUS 2 DEB
1 28978U 66040AP  24347.65997559  .00002658  00000-0  42307-2 0  9994
2 28978 100.3796 247.9652 0044300 285.7910 103.4684 13.49966546855434
Epoch: 2024-12-12T15:50Z
Definitive object data (Epoch: 2024-12-12T15:50:21.89Z)
Latitude29.26573°
Longitude-77.32425°
Altitude1,083.712 km
Speed7.309 km/s
True Right ascension16h 08m 24s
True Declination29° 07' 33"
Sunlit
Object was in daylight at TLE epoch
Visualization TLE readout
Latitude-25.20733°
Longitude-65.4745°
Altitude1,060.879 km
Speed7.331 km/s
Apparent Right ascension19h 52m 34s
Apparent Declination-64° 36' 56"
Sunlit
Object is in daylight
Visualization observer readout
Local Sidereal Time14:59:04
Azimuth151.972° SSE
Elevation-29.055°
Doppler factor1
Orbital elements
Apogee altitude1,102.713 km
Perigee altitude1,036.725 km
Semi-major axis7,447.856 km
Eccentricity0.00443
Inclination100.3796°
RAAN247.9652°
Arg. of periapsis285.791°
True anomaly103.96144°
Mean anomaly103.4684°
Eccentric anomaly103.71498°
Mean motion3.37673 °/min
BSTAR0.0042307
Orbital period106.61 mins
Loading maneuver chart data...
Loading historical data...
Loading historical data...
Loading historical data...
Loading historical data...
Loading historical data...
Loading historical data...
Loading historical data...

NIMBUS 2 DEB Visibility forecast

Observer location: undefined°, undefined

Span
Click to sort rows by Start time (UTC) header in descending order
Start Az.
Max El. time (UTC)
Max El. Az.
Max El.
End time (UTC)
End Az.
11 mins2024-12-13 16:43:08.976Z134.216° SE2024-12-13 16:48:08.976Z76.799° E35.467°2024-12-13 16:54:08.976Z358.472° N
10 mins2024-12-13 18:29:08.976Z209.634° SW2024-12-13 18:34:08.976Z270.23° WNW26.782°2024-12-13 18:39:08.976Z321.82° NNW
10 mins2024-12-14 05:40:08.976Z39.636° NE2024-12-14 05:45:08.976Z102.226° ESE30.05°2024-12-14 05:50:08.976Z158.942° S
10 mins2024-12-14 07:25:08.976Z355.884° N2024-12-14 07:30:08.976Z290.666° WNW33.011°2024-12-14 07:35:08.976Z231.657° WSW
7 mins2024-12-14 15:54:08.976Z91.286° ESE2024-12-14 15:57:08.976Z59.714° ENE19.015°2024-12-14 16:01:08.976Z18.855° NNE
|